cliquez pour ajouter le site Runraid à vos favoris  English version (google)  Retour à l'accueil Ecrire à l'auteur du site Runraid : Michel Jourdan



Les prochaines courses


Les derniers résultats

cliquez pour visualiser la page complète relatant la chronologie des éruptions du Piton de la Fournaise
éruptions Piton de la Fournaise


Ile de La Réunion

 Diagonale des Fous 

Ecrire au créateur du site : Michel Jourdan
Contact


2018-09-30 - La Verticale du Grand Serre

Pour consulter le palmarès d'un coureur, un clic sur son nom !

Vous avez des remarques, corrections, ... sur ces résultats , un clic sur --> pour me transmettre toute information concernant les classements


La Verticale du Grand Serre - 2018 : classement des 352 finishers
Place Nom Temps Cat. Club Sexe Clt/cat.
Place Nom Temps Cat. Club Sexe Clt/cat.
1 BONNET Remi 00:30:13 M 2
2 GACHET Xavier 00:31:53 M 3
3 TEIXIDO Ferran 00:32:16 M 16
4 EGLI Pascal 00:32:21 M 4
5 CAPARROS Camille 00:32:22 M 6
6 EQUY Samuel 00:32:55 M 13
7 HUIGE Titouan 00:32:58 M 14
8 CAILLOT Yoann 00:33:06 M 18
9 PERRET Adrien 00:33:33 M 8
10 MILLEREAU Jeremie 00:33:39 M 381
11 ANSELMET Thibault 00:33:40 M 12
12 GUDEFIN Yann 00:34:09 M 22
13 EYDALLIN Simone 00:34:24 M 7
14 COIFFET Louison 00:34:32 M 74
15 MOLLARET Axelle 00:34:36 F 1ere F 32
16 PERRUCHE Simon 00:34:37 M 61
17 PUEYO Thomas 00:34:42 M 15
18 DEWALLE Christel 00:34:56 F 2 F 31
19 GANDOLFI Matthieu 00:34:59 M 19
20 PeRILLAT PESSEY Joris 00:35:08 M 10
21 GARNIER Serge 00:35:12 M 20
22 PERRIER Florent 00:35:14 M 23
23 FAIVE Benjamin 00:35:25 M 28
24 PELLe Ludovic 00:35:35 M 30
25 ARNAULT Clement 00:35:37 M 88
26 CORNUS Samuel 00:35:43 M 66
27 GANDOLFI Beno 00:35:45 M 67
28 CARCEY COLLET Hugo 00:35:54 M 26
29 RIBOTTO Nicholas 00:36:43 M 62
30 CAPELLI Eric 00:36:44 M 73
31 PLEIJTE Tim 00:36:49 M 9
32 Ouvreur 00:36:59 M 450
33 CHAUVIN Valentin 00:37:02 M 91
34 CHEY Paul 00:37:03 M 27
35 BIZIEN Michael 00:37:10 M 64
36 MESTRE Bruno 00:37:23 M 104
37 BOUZON Lionel 00:37:26 M 72
38 SPORTELLI Thomas 00:37:40 M 364
39 POLLET VILLARD Francois 00:37:49 M 70
40 CABRIERES Jean Marie 00:37:52 M 82
41 MUGNIER Quentin 00:37:53 M 29
42 BLANC Steven 00:37:57 M 17
43 SCHUTZ Alexandre 00:38:01 M 108
44 RICHARD Alexandre 00:38:02 M 87
45 DEBROUCKE Romain 00:38:08 M 200
46 IBANEZ PASCUAL Lionel 00:38:08 M 76
47 GALINDO Robin 00:38:13 M 96
48 MENDEZ Jimmy 00:38:26 M 85
49 YVART Sebastien 00:38:26 M 111
50 PEREZ David 00:38:35 M 123
51 BUCH Morgan 00:38:38 M 369
52 TOURReS Valentin 00:38:45 M 109
53 BARDOU Thomas 00:38:50 M 89
54 MOUISSET Christopher 00:38:52 M 78
55 LONCHAMPT Remi 00:38:57 M 68
56 COLLIARD Dorian 00:39:09 M 65
57 JAGERCIKOVA Marianna 00:39:11 F 3 F 42
58 CENTRO Vincent 00:39:11 M 155
59 MAURY Matiss 00:39:17 M 69
60 GERARDI Hillary 00:39:29 F 4 F 35
61 MATTANA Mallaurie 00:39:32 F 5 F 40
62 BONY Kevin 00:39:33 M 145
63 PELLICIER Hugo 00:39:36 M 122
64 MIGUET Nicolas 00:39:39 M 71
65 LE BAHER Samuel 00:39:42 M 100
66 SAINTVOIRIN Julien 00:39:46 M 86
67 MARTINET Sebastien 00:39:52 M 120
68 BRUNOT Bob 00:39:53 M 383
69 FERLET Julien 00:40:00 M 84
70 CARCEY COLLET Jean Luc 00:40:02 M 83
71 DORNIER Adrien 00:40:03 M 75
72 GAY PERRET Laurent 00:40:05 M 127
73 GIRARD Lori 00:40:08 M 263
74 DESPREZ Thomas 00:40:20 M 126
75 MICHEL Nicolas 00:40:22 M 121
76 DOMISE Moise 00:40:23 M 117
77 NOBILE Pascal 00:40:33 M 106
78 CHATEL Matthieu 00:40:37 M 187
79 COSTAGLIOLA Guillaume 00:40:53 M 156
80 PAUGET Francois 00:40:53 M 240
81 SAUGER Frederic 00:40:56 M 194
82 PUSSET Emmanuel 00:40:56 M 131
83 BAYART Michael 00:40:59 M 125
84 MARION Sebastien 00:41:09 M 130
85 CHARROUD Frederic 00:41:12 M 115
86 VACHER Julien 00:41:19 M 63
87 JEANNEROD Melanie 00:41:24 F 6 F 43
88 BERTHOD Francois 00:41:29 M 144
89 DEPLANCHE Laura 00:41:37 F 7 F 52
90 JAUBERT Fabien 00:41:37 M 99
91 RAIBAUT Stephane 00:41:43 M 79
92 MOULIN Stephane 00:41:48 M 271
93 ROBELIN Olivier 00:41:48 M 140
94 FAURE Stephane 00:41:50 M 95
95 BEDEZ Jean Pierre 00:41:51 M 134
96 MAHILLON Robin 00:42:00 M 366
97 GODON Thibaud 00:42:18 M 160
98 GUIMEZANES Matthieu 00:42:31 M 138
99 BONNEL Lorna 00:42:32 F 8 F 49
100 SIMEON Laure 00:42:40 F 9 F 48
101 RAIBAUT Valerie 00:42:40 F 10 F 45
102 DIAZ Joel 00:42:41 M 136
103 GONNET Gautier 00:42:45 M 129
104 PERRON CABUS Guia 00:42:47 F 196
105 YVINEC Jeremy 00:42:54 M 112
106 MACHI Johann 00:42:56 M 208
107 MARTINET Sebastien 00:43:03 M 171
108 ROUSSILLON Johan 00:43:05 M 132
109 MACHEREY Frederic 00:43:08 M 77
110 VORUZ Samuel 00:43:10 M 143
111 COLMARD Jean Louis 00:43:12 M 116
112 RENAUD Christophe 00:43:13 M 352
113 RECORDON Phil 00:43:22 M 242
114 COLLIARD Cedric 00:43:23 M 147
115 LOTTIN Xavier 00:43:29 M 166
116 SUKHOVA Vera 00:43:31 F 57
117 UDDIN Yanis 00:43:35 M 110
118 PIGNIER Tristan 00:43:39 M 174
119 LANFRANCHI Phiippe 00:43:40 M 348
120 SIMEON Erick 00:43:40 M 150
121 BLOCIER Erwan 00:43:45 M 114
122 SERY Vincent 00:43:47 M 267
123 BIE Nicolas 00:43:48 M 218
124 RENOTON Laurie 00:43:49 F 47
125 BASTARD ROSSET Frederic 00:43:50 M 322
126 FLAHAUT Thierry 00:43:54 M 118
127 SUBRA Florent 00:43:59 M 151
128 SUBRA Frederic 00:44:02 M 142
129 PETER Kuonen 00:44:05 M 173
130 MOLLARET Bruno 00:44:10 M 105
131 BARTHeLeMY Jean Claude 00:44:18 M 152
132 BELZ Jean Marie 00:44:19 M 135
133 CIOT Jules 00:44:21 M 92
134 MUNIER Damien 00:44:22 M 172
135 TIENI Jessica 00:44:26 F 54
136 JUILLAGUET Catherine 00:44:30 F 46
137 BERNIER Michel 00:44:38 M 191
138 BERTOCCHI Mickael 00:44:45 M 259
139 TOMAS VERA Alphonse 00:44:51 M 183
140 JULLIAGUET Daniel 00:44:59 M 362
141 SCHMITT Thomas 00:45:00 M 124
142 DELMI DEYIRMENDJIAN Nicolas 00:45:03 M 157
143 CHOSSAT Theo 00:45:05 M 367
144 POLLET VILLARD Marie 00:45:10 F 53
145 FRIGOLA MAT? Jordi 00:45:11 M 137
146 MANCEAU Fabian 00:45:15 M 169
147 BILOCQ Olivier 00:45:16 M 219
148 GOTTO Jeremy 00:45:26 M 384
149 BOISSONNET Laurent 00:45:28 M 153
150 CHABANOL Matthieu 00:45:31 M 372
151 RIPOL Candice 00:45:34 F 38
152 MAGNIN Marie Pascale 00:45:35 F 211
153 RAISIN Alban 00:45:37 M 80
154 GILLET Francis 00:45:40 M 128
155 JUIF Jules 00:45:59 M 164
156 TOQUe Aurelie 00:46:06 F 60
157 CALMET Sebastien 00:46:08 M 222
158 PERRONE Daniel 00:46:08 M 188
159 GALLAND Titouan 00:46:09 M 97
160 MUSARD emilien 00:46:09 M 203
161 GEORGES Thomas 00:46:12 M 202
162 ROSSERO Jeremy 00:46:20 M 177
163 MERLIN George 00:46:21 M 103
164 CHENEVEZ James 00:46:24 M 199
165 FILSER Frederic 00:46:24 M 378
166 TABOURET Florent 00:46:30 M 272
167 PAYA Robin 00:46:30 M 149
168 LASSALE Jerome 00:46:30 M 119
169 MAZAN Frederic 00:46:32 M 102
170 JOANNON Yves 00:46:34 M 139
171 ROLLO Quentin 00:46:36 M 107
172 DELOBELLE Vincent 00:46:39 M 158
173 MIRALE Claude 00:46:40 F 281
174 LEMARIE Charles 00:46:41 M 165
175 GONTHIER Antoine 00:46:42 M 377
176 PHILIP Laurent 00:46:50 M 292
177 CANDEIAS Damien 00:46:50 M 303
178 LEPORCQ Jean Philippe 00:46:53 M 232
179 CHAUVIN Christophe 00:46:56 M 225
180 IBANEZ PASCUAL Solene 00:46:59 F 55
181 MELIX Jeremy 00:47:06 M 237
182 BUISSON Vincent 00:47:06 M 146
183 FAIN Christophe 00:47:07 M 370
184 PERRIER Christophe 00:47:14 M 195
185 ACCARIER Sebastien 00:47:25 M 213
186 LOHR Gabriel 00:47:29 M 186
187 BARTHELEMY Christian 00:47:43 M 382
188 DONNOU Charlie 00:47:49 M 374
189 ANJUBAULT Bernard 00:47:51 M 258
190 TAREL Laurent 00:47:58 M 182
191 PANGALOS Dimitri 00:47:59 M 204
192 STAAL Alke 00:48:02 M 141
193 CHEVALLY Marie Anne 00:48:06 F 254
194 JOUBERT Alain 00:48:13 M 148
195 LOUYOT Pierre 00:48:16 M 234
196 MARIETTA Patrice 00:48:17 M 264
197 ROUSSEAU Sebastien 00:48:21 M 253
198 LAVIS Kathlyne 00:48:24 F 56
199 CLATAUD Daniele 00:48:26 M 304
200 SAEZ Edgardo 00:48:30 M 181
201 ROUX Adrien 00:48:31 M 373
202 CHABRE Andre 00:48:49 M 323
203 GALLEGO Antonio 00:48:52 M 228
204 BARDEAU Sebastien 00:48:56 M 189
205 BOUTIN Yohann 00:49:04 M 220
206 SAUZEA David 00:49:08 M 245
207 BERTHON Mickael 00:49:13 M 375
208 PALUCH Sebastien 00:49:14 M 239
209 VERDIER Remi 00:49:15 M 247
210 PAUL Francis 00:49:20 M 307
211 FERRAND David 00:49:28 M 351
212 GENAUDET Nicolas 00:49:32 M 230
213 SESTIER CARLIN Fabienne 00:49:34 F 206
214 DUCROT Nelly 00:49:36 F 59
215 MUFFAT Alexia 00:49:43 F 316
216 DUCASTEL Benjamin 00:49:44 M 201
217 ARNAUD Bruno 00:49:49 M 329
218 BORGHESE Cyprien 00:49:49 M 261
219 CLEMENT Olivier 00:49:54 M 250
220 BARTHELEMY Cloe 00:49:55 F 212
221 EHLERS Benjamin 00:50:05 M 277
222 EGGER Anne Marie 00:50:07 F 280
223 CALLEC Olivier 00:50:11 M 221
224 PICON Anthony 00:50:12 M 293
225 CLEMENT Emilie 00:50:14 F 249
226 AUBE DURUFLE Julien 00:50:16 M 270
227 LEMASSON Karine 00:50:19 F 315
228 POTTIER Alexis 00:50:22 M 175
229 MARION Vincent 00:50:28 M 170
230 LEON Joan Carles 00:50:33 M 252
231 AVANTURIER Christophe 00:50:37 M 197
232 ADRIAENS Jonathan 00:50:40 M 321
233 JACONY Maxime 00:50:47 M 161
234 SANDRIN Jean Christophe 00:51:00 M 244
235 MAZZA Alexis 00:51:18 M 236
236 JAMET Mikael 00:51:20 M 207
237 DEL GROSSO Veronica 00:51:21 F 359
238 BEUDIN Annabelle 00:51:22 F 58
239 JACQUET Yves 00:51:22 M 231
240 MICHEL Alain 00:51:28 M 335
241 PATTEIN Laurence 00:51:33 F 274
242 ANSELMET Manon 00:51:36 F 268
243 NEGELE Patrice 00:51:38 M 327
244 LHOMME Lucas 00:51:39 M 101
245 TAYEEL Sebastien 00:51:39 M 279
246 ZOUGHAM Lois 00:51:41 M 113
247 CHIARELLI Leo 00:51:44 M 275
248 MORANCE Cyril 00:51:47 M 238
249 DUCASTEL Nicolas 00:51:48 M 262
250 MARTINET Stephane 00:51:51 M 235
251 RICO Laure 00:51:57 F 257
252 GACHET Jean Noel 00:52:11 M 289
253 FREISMUTH Alexandre 00:52:11 M 365
254 Pellet Kevin 00:52:23 M 205
255 BAUX Philippe 00:52:25 M 302
256 CHAMBEFORT David 00:52:35 M 223
257 RAVEL Gilles 00:52:39 M 294
258 PERILLAT Camille 00:52:40 F 256
259 DUGENET Stephane 00:52:43 M 286
260 CARRIER Christine 00:52:46 F 269
261 GOUEZIN Alain 00:52:55 M 278
262 ROUX Jean Regis 00:52:58 M 179
263 MARCQ Mathieux 00:53:17 M 361
264 PERRIN Jean Marcel 00:53:21 M 265
265 VERNET Denis 00:53:27 M 299
266 JOURDAN Gael 00:53:36 M 309
267 DESSERTENNE Jerome 00:53:38 M 305
268 EMILY Hawkins 00:53:40 F 300
269 LASSALE Serge 00:53:55 M 248
270 FOLCHER Laurent 00:54:00 M 288
271 DUPREY Eric 00:54:23 M 276
272 KETFI CHARIF Nourdine 00:54:24 M 291
273 CROUTEIX Edouard 00:54:33 M 284
274 DALLY Alexandre 00:54:39 M 310
275 DORETTI Fabien 00:54:45 M 379
276 BACHELET Romain 00:54:46 M 215
277 BONNIER Joel 00:54:51 M 198
278 BAY Martin 00:54:54 M 190
279 SANDRON Frederic 00:55:10 M 295
280 MARTY Baptiste 00:55:14 M 363
281 DANGELO Marco 00:55:15 M 285
282 DAVID Thibaut 00:55:30 M 325
283 GIORDANO Lionel 00:55:31 M 290
284 VERINE Philippe 00:55:39 M 297
285 BONNET Jean Marie 00:55:45 M 347
286 CHENEVAS Christiane 00:55:50 F 308
287 COINDET Christophe 00:55:52 M 283
288 GRAMMATICA Sandrine 00:55:58 F 357
289 FAVIER Gerald 00:56:08 M 326
290 CLEMENT Arnaud 00:56:08 M 324
291 BALME Cedric 00:56:08 M 337
292 DUSFOUR Olivier 00:56:37 M 159
293 REBREYEND Denis 00:56:38 M 312
294 LUTROT Sebastien 00:56:42 M 168
295 LIONNET Thomas 00:56:44 M 233
296 BALDUCCI David 00:56:45 M 216
297 BACHELET Aurelie 00:56:52 F 313
298 ARFI Fred 00:56:57 M 214
299 BAUSSAND Cyril 00:57:20 M 376
300 BENEDETTO Guy 00:57:31 M 217
301 GALLEGO Elodie 00:57:45 F 255
302 GOAVEC Anthony 00:57:46 M 311
303 RIONDY Pierre Michel 00:57:57 M 266
304 MA Cong 00:58:00 F 209
305 DEPARDON David 00:58:03 M 360
306 BORDAZ Eric 00:58:10 M 260
307 SMITH Christopher 00:58:24 M 336
308 VANLATON Robert 00:58:25 M 273
309 POUGNARD Raphael 00:58:38 M 176
310 DE REUS Renate 00:58:48 F 34
311 JACQUOT Kevin 00:59:07 M 162
312 PEREZ MINGUEZ Alfonso 00:59:10 M 350
313 BUDILLON Audrey 00:59:12 F 44
314 PLION Serge 00:59:58 M 241
315 CHARROUD Isabelle 01:00:08 F 330
316 LEYNAUD Michel 01:00:24 M 332
317 POITEVIN Mireille 01:00:34 F 319
318 CUISANT Frederic 01:00:36 M 334
319 DEMANDER Fabien 01:00:39 M 368
320 SADEK Haroun 01:00:43 M 180
321 BOUDIER Fred 01:01:00 M 154
322 ERBGUTH Jorn 01:01:01 M 287
323 DEMANGE Julien 01:01:09 M 93
324 GANIVET Joffrey 01:01:17 M 229
325 RICHARD Michel 01:01:57 M 243
326 SPIES Christophe 01:02:21 M 314
327 PICCHIONI David 01:02:34 M 371
328 DOMINGUES Jose 01:02:50 M 226
329 GARCIA David 01:03:17 M 298
330 THOMINE Manuelle 01:03:23 F 282
331 FAIBIS Alexandre 01:03:26 M 227
332 MURCIA Cathy 01:03:46 F 318
333 PERRIER Marie 01:03:48 F 333
334 BROUSSET Tristan 01:04:31 M 90
335 CHAIX Emilie 01:04:55 F 355
336 PEYRE Marie 01:05:25 M 345
337 BRACHON Nicole 01:05:44 F 339
338 DUPUIS Remi 01:06:01 M 331
339 FIAT Monique 01:06:08 F 210
340 STOCK Josiane 01:06:20 F 317
341 PESSEY Rose 01:07:32 F 349
342 ROUX Anthony 01:09:01 M 178
343 STROPPARO Carole 01:09:14 F 342
344 GILLET Delphine 01:09:43 F 301
345 BOCHET Jean Marie 01:09:45 M 340
346 GARNIER Laurent 01:10:20 M 343
347 SOLANO Laurie 01:13:10 F 353
348 JACQUET Imad 01:13:40 M 98
349 LE MOULLAC Marjorie 01:17:47 F 356
350 MAGDZIARZ Alexandre 01:22:01 M 344
351 GRATTARD Franck 01:22:03 M 346
352 LEGRIS Bernard 01:32:48 M 385


ReferencementCe site est listé dans la catégorie Sport : Sports extrêmes Dictionnaire
| Accueil | La Réunion  Vue du ciel | Météo | Cyclones | Volcan | Cirques de Mafate , Cilaos , Salazie | Photos Randonnées | Randonnées Réunion: Randos Espiègle , Courses montagne | Diagonale des Fous |  Marathon des Sables | Voyages Les stats du site | Fonds écran | Plan du site | Blog de runraid | Galerie photos Sport Réunion |